Flag for Greece Weather past 2 weeks in Nea Smyrni, Greece

Now
81 °F

Scattered clouds.


Feels Like: 80 °F
Forecast: 64 / 87 °F
Wind: 7 mph from East

Location: Eleftherios Venizelos International Airport

Current Time: Sep 20, 2014 at 3:17:31 PM

Latest Report: Sep 20, 2014 at 2:50 PM


Visibility: N/A

Pressure: 30.12 "Hg

Humidity: 39%

Dew point: 54 °F

Location of Nea SmyrniLocation

Historic Weather in Nea Smyrni — Graph

°F

Nea Smyrni temperature yesterday

Maximum temperature yesterday: 77 °F (at 12:20 PM)
Minimum temperature yesterday: 66 °F (at 3:50 AM)
Average temperature yesterday: 72 °F

Past Weeks' High & Low Weather Summary

 TemperatureHumidityPressure
High86 °F (Sep 11, 3:50 PM)94% (Sep 6, 3:20 AM)30.21 "Hg (Sep 6, 3:20 AM)
Low57 °F (Sep 20, 5:50 AM)27% (Sep 11, 3:50 PM)29.74 "Hg (Sep 5, 4:50 PM)
Average73 °F66%29.94 "Hg
* Reported Sep 5 1:20 PM — Sep 20 1:50 PM, Nea Smyrni, Weather by CustomWeather, © 2014

Note: Actual official high and low records may vary slightly from our data, if they occured in-between our weather recording intervals... More about our weather records

Advertising

Nea Smyrni weather history for previous 24 hours

 ConditionsComfort  
Time TempWeatherWind HumidityBarometerVisibility
1:50 PM
Sep 20
79 °FPassing clouds.5 mph42%30.12 "HgN/A
1:20 PM79 °FPassing clouds.8 mph42%30.15 "HgN/A
12:50 PM77 °FPassing clouds.7 mph47%30.15 "HgN/A
12:20 PM77 °FPassing clouds.7 mph44%30.18 "HgN/A
11:50 AM77 °FPassing clouds.7 mph44%30.18 "HgN/A
11:20 AM75 °FPassing clouds.7 mph47%30.18 "HgN/A
10:50 AM75 °FPassing clouds.8 mph44%30.18 "HgN/A
10:20 AM75 °FPassing clouds.8 mph44%30.18 "HgN/A
9:50 AM73 °FPassing clouds.8 mph50%30.18 "HgN/A
9:20 AM72 °FSunny.2 mph50%30.18 "Hg10 mi
8:50 AM68 °FSunny.1 mph56%30.18 "Hg10 mi
8:20 AM64 °FSunny.2 mph60%30.18 "Hg10 mi
7:50 AM63 °FClear.3 mph64%30.18 "Hg10 mi
7:20 AM63 °FClear.3 mph64%30.18 "Hg10 mi
6:50 AM61 °FClear.3 mph68%30.18 "Hg10 mi
6:20 AM59 °FClear.2 mph77%30.15 "Hg10 mi
5:50 AM57 °FClear.5 mph82%30.15 "Hg10 mi
5:20 AM59 °FClear.2 mph77%30.15 "Hg10 mi
4:50 AM59 °FClear.5 mph77%30.15 "Hg10 mi
3:50 AM61 °FClear.3 mph72%30.18 "Hg10 mi
3:20 AM64 °FClear.3 mph64%30.18 "Hg10 mi
2:50 AM64 °FClear.2 mph68%30.18 "Hg10 mi
2:20 AM64 °FClear.2 mph68%30.18 "Hg10 mi
1:50 AM68 °FClear.2 mph60%30.18 "Hg10 mi
1:20 AM64 °FClear.3 mph73%30.18 "Hg10 mi
12:50 AM66 °FClear.2 mph68%30.18 "Hg10 mi
12:20 AM68 °FPassing clouds.5 mph69%30.18 "HgN/A
11:50 PM
Sep 19
68 °FClear.1 mph69%30.18 "Hg10 mi
11:20 PM66 °FPassing clouds.6 mph73%30.18 "HgN/A
10:50 PM68 °FClear.3 mph69%30.21 "Hg10 mi
10:20 PM66 °FClear.3 mph73%30.21 "Hg10 mi
9:50 PM68 °FPassing clouds.6 mph69%30.21 "HgN/A
9:20 PM70 °FClear.8 mph64%30.18 "Hg10 mi
8:20 PM70 °FSunny.10 mph64%30.18 "Hg10 mi
7:50 PM70 °FPassing clouds.7 mph64%30.18 "HgN/A
7:20 PM72 °FPassing clouds.7 mph61%30.18 "HgN/A
6:50 PM73 °FPassing clouds.13 mph57%30.15 "HgN/A
6:20 PM75 °FPassing clouds.12 mph54%30.18 "HgN/A
5:50 PM75 °FScattered clouds.14 mph50%30.15 "HgN/A
5:20 PM77 °FScattered clouds.15 mph47%30.15 "HgN/A
4:50 PM77 °FScattered clouds.13 mph47%30.15 "HgN/A
4:20 PM77 °FScattered clouds.13 mph47%30.15 "HgN/A
3:50 PM77 °FPartly sunny.15 mph47%30.18 "HgN/A
3:20 PM75 °FPartly sunny.17 mph47%N/AN/A
Weather by CustomWeather, © 2014

See weather overviewHow to use our weather pages